WetterOnline ( https://www.wetteronline.at )

Wetter aktuell Garmisch-Partenkirchen

Aktuelles Wetter: Garmisch-Partenkirchen (719m)

6-stündlich | Neueste Meldungen
Ortszeit Temperatur Wetter
Mo, 25.05. 2:00 10.1° C bedeckt
So, 24.05. 20:00 15.1° C bewölkt
So, 24.05. 14:00 15.8° C leicht bewölkt
So, 24.05. 8:00 5.8° C bedeckt
So, 24.05. 2:00 8.0° C leicht bewölkt
Sa, 23.05. 20:00 11.1° C leichter Regen
Sa, 23.05. 14:00 24.4° C fast wolkenlos
Sa, 23.05. 8:00 15.5° C bewölkt
Ortszeit Temperatur Wetter
Mo, 25.05. 3:00 9.6° C bedeckt
Mo, 25.05. 2:50 9.6° C bedeckt
Mo, 25.05. 2:40 9.8° C bedeckt
Mo, 25.05. 2:30 9.8° C bedeckt
Mo, 25.05. 2:20 9.8° C bedeckt
Mo, 25.05. 2:10 10.2° C bedeckt
Mo, 25.05. 2:00 10.1° C bedeckt
Mo, 25.05. 1:30 10.5° C bedeckt
Mo, 25.05. 1:00 11.6° C bedeckt
Mo, 25.05. 0:30 11.7° C bedeckt
Mo, 25.05. 0:00 9.9° C bedeckt
Ortszeit Relative Feuchte Sichtweite
Mo, 25.05. 2:00 72% >70 km
So, 24.05. 20:00 39% >70 km
So, 24.05. 14:00 37% >70 km
So, 24.05. 8:00 94% 55 km
So, 24.05. 2:00 96% >70 km
Sa, 23.05. 20:00 94% 29 km
Sa, 23.05. 14:00 54% 45 km
Sa, 23.05. 8:00 69% 60 km
Ortszeit Relative Feuchte Sichtweite
Mo, 25.05. 3:00 80% >70 km
Mo, 25.05. 2:50 80% -
Mo, 25.05. 2:40 77% -
Mo, 25.05. 2:30 76% 65 km
Mo, 25.05. 2:20 76% -
Mo, 25.05. 2:10 72% -
Mo, 25.05. 2:00 72% >70 km
Mo, 25.05. 1:30 70% 65 km
Mo, 25.05. 1:00 63% >70 km
Mo, 25.05. 0:30 63% >70 km
Mo, 25.05. 0:00 73% >70 km
Ortszeit Niederschlagsmenge Niederschlagsart
Mo, 25.05. 2:00 0.1 l/m2 in 6 Std. Regen
So, 24.05. 20:00 0.0 l/m2 in 12 Std. -
So, 24.05. 14:00 0.0 l/m2 in 6 Std. -
So, 24.05. 8:00 5 l/m2 in 12 Std. -
So, 24.05. 2:00 5 l/m2 in 6 Std. Regen
Sa, 23.05. 20:00 9 l/m2 in 12 Std. Regen
Sa, 23.05. 14:00 0.0 l/m2 in 6 Std. -
Sa, 23.05. 8:00 0.1 l/m2 in 12 Std. -
Ortszeit Niederschlagsmenge Niederschlagsart
Mo, 25.05. 3:00 0.0 l/m2 in 1 Std. -
Mo, 25.05. 2:50 keine Meldung -
Mo, 25.05. 2:40 keine Meldung -
Mo, 25.05. 2:30 0.0 l/m2 in 1 Std. -
Mo, 25.05. 2:20 keine Meldung -
Mo, 25.05. 2:10 keine Meldung -
Mo, 25.05. 2:00 0.1 l/m2 in 1 Std. Regen
Mo, 25.05. 1:30 0.1 l/m2 in 1 Std. Schneeregen
Mo, 25.05. 1:00 0.0 l/m2 in 1 Std. -
Mo, 25.05. 0:30 0.0 l/m2 in 1 Std. -
Mo, 25.05. 0:00 0.0 l/m2 in 1 Std. -
Ortszeit Stärke Spitze Richtung
km/h Bft. km/h Grad Sektor
Mo, 25.05. 2:00 0 0 25 - -
So, 24.05. 20:00 4 1 32 270° W
So, 24.05. 14:00 11 2 29 210° SW
So, 24.05. 8:00 4 1 11 230° SW
So, 24.05. 2:00 4 1 40 190° S
Sa, 23.05. 20:00 7 2 54 70° O
Sa, 23.05. 14:00 15 3 28 40° NO
Sa, 23.05. 8:00 4 1 7 210° SW
Ortszeit Stärke Spitze Richtung
km/h Bft. km/h Grad Sektor
Mo, 25.05. 3:00 2 1 4 230° SW
Mo, 25.05. 2:50 2 1 - 230° SW
Mo, 25.05. 2:40 2 1 - 250° W
Mo, 25.05. 2:30 0 0 4 - -
Mo, 25.05. 2:20 2 1 - 170° S
Mo, 25.05. 2:10 2 1 - 300° NW
Mo, 25.05. 2:00 0 0 11 - -
Mo, 25.05. 1:30 4 1 11 230° SW
Mo, 25.05. 1:00 4 1 25 280° W
Mo, 25.05. 0:30 11 2 25 50° NO
Mo, 25.05. 0:00 0 0 4 - -
Ortszeit Untergrenze Bedeckung Gattung
total tief tief mittel hoch
Mo, 25.05. 2:00 1500 m 8/8 8/8 - - -
So, 24.05. 20:00 2700 m 8/8 6/8 - - -
So, 24.05. 14:00 2400 m 4/8 4/8 - - -
So, 24.05. 8:00 1800 m 8/8 8/8 - - -
So, 24.05. 2:00 450 m 4/8 3/8 - - -
Sa, 23.05. 20:00 180 m 8/8 8/8 - - -
Sa, 23.05. 14:00 3000 m 1/8 1/8 - - -
Sa, 23.05. 8:00 2100 m 8/8 4/8 - - -
Ortszeit Bedeckungsgrad in Achtel und Wolkenuntergrenze
Mo, 25.05. 3:00 7(1500m) 8(1800m)
Mo, 25.05. 2:50 7(1500m) 8(1800m)
Mo, 25.05. 2:40 7(1500m) 7(1800m) 8(2100m)
Mo, 25.05. 2:30 5(1500m) 8(2100m)
Mo, 25.05. 2:20 5(1500m) 8(2100m)
Mo, 25.05. 2:10 3(1500m) 8(2100m)
Mo, 25.05. 2:00 7(1500m) 8(2100m)
Mo, 25.05. 1:30 7(1500m) 8(2100m)
Mo, 25.05. 1:00 8(1500m) 8(1800m)
Mo, 25.05. 0:30 8(1500m) 8(2100m)
Mo, 25.05. 0:00 7(1800m) 8(2400m)
Ortszeit Luftdruck NN (hPa) Tendenz (hPa in 3 Std.)
Mo, 25.05. 2:00 1032 0,0
So, 24.05. 20:00 1029 + 0,5
So, 24.05. 14:00 1029 - 0,9
So, 24.05. 8:00 1033 + 0,3
So, 24.05. 2:00 1032 + 1,4
Sa, 23.05. 20:00 1028 + 2,0
Sa, 23.05. 14:00 1014 - 3,5
Sa, 23.05. 8:00 1022 - 0,5
Ortszeit Luftdruck NN (hPa) Tendenz (hPa in 3 Std.)
Mo, 25.05. 3:00 1032 0,0
Mo, 25.05. 2:50 1032 keine Meldung
Mo, 25.05. 2:40 1032 keine Meldung
Mo, 25.05. 2:30 1032 - 0,1
Mo, 25.05. 2:20 1032 keine Meldung
Mo, 25.05. 2:10 1032 keine Meldung
Mo, 25.05. 2:00 1032 0,0
Mo, 25.05. 1:30 1032 + 0,2
Mo, 25.05. 1:00 1032 + 0,4
Mo, 25.05. 0:30 1031 + 0,6
Mo, 25.05. 0:00 1032 + 0,8
Ortszeit Schneehöhe (cm)
Mo, 25.05. 2:00 -
So, 24.05. 20:00 -
So, 24.05. 14:00 -
So, 24.05. 8:00 -
So, 24.05. 2:00 -
Sa, 23.05. 20:00 -
Sa, 23.05. 14:00 -
Sa, 23.05. 8:00 -
Ortszeit Schneehöhe (cm)
Mo, 25.05. 3:00 -
Mo, 25.05. 2:50 -
Mo, 25.05. 2:40 -
Mo, 25.05. 2:30 -
Mo, 25.05. 2:20 -
Mo, 25.05. 2:10 -
Mo, 25.05. 2:00 -
Mo, 25.05. 1:30 -
Mo, 25.05. 1:00 -
Mo, 25.05. 0:30 -
Mo, 25.05. 0:00 -
Link zu dieser Seite / Seite empfehlen

Das Wetter in ...